H1 CPF 2 NER 2025 8 7 9 219 01 glonass146 H2 2216101 9146 54377 2025 8 7 0 0 0 2025 8 10 23 45 0 900 1 1 0 0 0 1 H9 10 0 60894 0.00000 0 13861936.364 10027775.246 18918953.135 10 0 60894 900.00000 0 14863979.396 11998284.712 16898619.266 10 0 60894 1800.00000 0 15879105.434 13654375.928 14549908.887 10 0 60894 2700.00000 0 16848942.347 14972946.842 11918335.177 10 0 60894 3600.00000 0 17713602.811 15943765.515 9054958.609 10 0 60894 4500.00000 0 18414304.030 16569665.833 6015399.559 10 0 60894 5400.00000 0 18895962.845 16866201.834 2858757.265 10 0 60894 6300.00000 0 19109655.659 16860775.047 -353543.794 10 0 60894 7200.00000 0 19014837.812 16591271.729 -3558957.082 10 0 60894 8100.00000 0 18581226.892 16104267.988 -6695042.397 10 0 60894 9000.00000 0 17790268.522 15452879.435 -9700694.350 10 0 60894 9900.00000 0 16636120.902 14694347.428 -12517345.531 10 0 60894 10800.00000 0 15126114.916 13887465.325 -15090119.558 10 0 60894 11700.00000 0 13280669.105 13089955.080 -17368910.292 10 0 60894 12600.00000 0 11132662.181 12355906.480 -19309365.165 10 0 60894 13500.00000 0 8726288.881 11733388.439 -20873752.835 10 0 60894 14400.00000 0 6115446.973 11262334.096 -22031698.017 10 0 60894 15300.00000 0 3361723.028 10972789.455 -22760769.300 10 0 60894 16200.00000 0 532061.311 10883599.445 -23046908.937 10 0 60894 17100.00000 0 -2303786.727 11001586.404 -22884697.000 10 0 60894 18000.00000 0 -5075925.992 11321254.893 -22277445.569 10 0 60894 18900.00000 0 -7716983.590 11825034.276 -21237122.098 10 0 60894 19800.00000 0 -10164666.564 12484047.801 -19784104.341 10 0 60894 20700.00000 0 -12364105.933 13259374.693 -17946772.454 10 0 60894 21600.00000 0 -14269890.733 14103751.150 -15760946.922 10 0 60894 22500.00000 0 -15847708.949 14963637.788 -13269183.777 10 0 60894 23400.00000 0 -17075528.772 15781565.889 -10519941.310 10 0 60894 24300.00000 0 -17944272.953 16498663.281 -7566634.732 10 0 60894 25200.00000 0 -18457960.178 17057253.345 -4466597.353 10 0 60894 26100.00000 0 -18633309.620 17403417.758 -1279968.564 10 0 60894 27000.00000 0 -18498827.114 17489415.287 1931469.818 10 0 60894 27900.00000 0 -18093412.908 17275855.142 5105486.432 10 0 60894 28800.00000 0 -17464550.641 16733533.740 8180599.573 10 0 60894 29700.00000 0 -16666154.455 15844857.921 11097259.939 10 0 60894 30600.00000 0 -15756165.030 14604794.889 13798994.601 10 0 60894 31500.00000 0 -14793995.538 13021308.817 16233490.757 10 0 60894 32400.00000 0 -13837934.364 11115265.306 18353599.199 10 0 60894 33300.00000 0 -12942613.051 8919806.741 20118238.993 10 0 60894 34200.00000 0 -12156644.953 6479223.354 21493186.758 10 0 60894 35100.00000 0 -11520532.927 3847365.414 22451736.118 10 0 60894 36000.00000 0 -11064933.188 1085660.698 22975215.155 10 0 60894 36900.00000 0 -10809347.825 -1739182.353 23053352.120 10 0 60894 37800.00000 0 -10761300.799 -4557692.463 22684482.308 10 0 60894 38700.00000 0 -10916032.405 -7300271.788 21875591.596 10 0 60894 39600.00000 0 -11256725.810 -9899842.813 20642194.976 10 0 60894 40500.00000 0 -11755257.241 -12294397.308 19008051.282 10 0 60894 41400.00000 0 -12373439.557 -14429342.285 17004718.225 10 0 60894 42300.00000 0 -13064708.178 -16259545.750 14670954.894 10 0 60894 43200.00000 0 -13776179.481 -17750997.020 12051981.904 10 0 60894 44100.00000 0 -14450995.673 -18882012.008 9198612.262 10 0 60894 45000.00000 0 -15030857.503 -19643932.531 6166269.030 10 0 60894 45900.00000 0 -15458637.605 -20041289.818 3013908.373 10 0 60894 46800.00000 0 -15680963.237 -20091424.926 -197131.044 10 0 60894 47700.00000 0 -15650657.892 -19823581.855 -3404329.354 10 0 60894 48600.00000 0 -15328936.848 -19277511.726 -6545213.223 10 0 60894 49500.00000 0 -14687261.903 -18501647.431 -9558584.870 10 0 60894 50400.00000 0 -13708774.932 -17550926.721 -12385727.003 10 0 60894 51300.00000 0 -12389247.868 -16484356.821 -14971558.817 10 0 60894 52200.00000 0 -10737507.442 -15362424.789 -17265719.272 10 0 60894 53100.00000 0 -8775315.516 -14244464.296 -19223555.489 10 0 60894 54000.00000 0 -6536709.191 -13186091.184 -20806996.400 10 0 60894 54900.00000 0 -4066827.835 -12236816.872 -21985294.358 10 0 60894 55800.00000 0 -1420276.019 -11437940.720 -22735620.343 10 0 60894 56700.00000 0 1340909.178 -10820810.201 -23043501.670 10 0 60894 57600.00000 0 4149601.533 -10405521.703 -22903094.335 10 0 60894 58500.00000 0 6936141.891 -10200115.801 -22317285.581 10 0 60894 59400.00000 0 9631000.822 -10200299.716 -21297625.597 10 0 60894 60300.00000 0 12167437.174 -10389707.221 -19864090.602 10 0 60894 61200.00000 0 14484042.465 -10740683.636 -18044682.734 10 0 60894 62100.00000 0 16527066.109 -11215561.426 -15874875.269 10 0 60894 63000.00000 0 18252425.923 -11768371.427 -13396914.508 10 0 60894 63900.00000 0 19627321.616 -12346916.571 -10658992.374 10 0 60894 64800.00000 0 20631385.708 -12895119.963 -7714306.127 10 0 60894 65700.00000 0 21257325.716 -13355547.838 -4620023.631 10 0 60894 66600.00000 0 21511032.620 -13672000.821 -1436174.419 10 0 60894 67500.00000 0 21411152.897 -13792064.270 1775511.959 10 0 60894 68400.00000 0 20988143.649 -13669510.357 4952797.924 10 0 60894 69300.00000 0 20282851.738 -13266450.957 8034137.291 10 0 60894 70200.00000 0 19344677.453 -12555150.895 10959859.353 10 0 60894 71100.00000 0 18229400.261 -11519425.414 13673315.274 10 0 60894 72000.00000 0 16996757.920 -10155563.003 16121965.289 10 0 60894 72900.00000 0 15707880.228 -8472734.418 18258386.557 10 0 60894 73800.00000 0 14422684.332 -6492869.952 20041183.102 10 0 60894 74700.00000 0 13197339.943 -4250008.844 21435781.096 10 0 60894 75600.00000 0 12081909.728 -1789146.389 22415094.958 10 0 60894 76500.00000 0 11118262.747 835375.143 22960051.971 10 0 60894 77400.00000 0 10338347.655 3561866.930 23059965.569 10 0 60894 78300.00000 0 9762897.472 6323604.390 22712750.051 10 0 60894 79200.00000 0 9400620.126 9051354.491 21924972.116 10 0 60894 80100.00000 0 9247908.918 11676016.478 20711737.402 10 0 60894 81000.00000 0 9289085.700 14131267.853 19096413.083 10 0 60894 81900.00000 0 9497167.342 16356106.718 17110190.512 10 0 60894 82800.00000 0 9835124.282 18297185.253 14791494.905 10 0 60894 83700.00000 0 10257579.047 19910837.202 12185252.094 10 0 60894 84600.00000 0 10712873.885 21164714.454 9342025.322 10 0 60894 85500.00000 0 11145420.583 22038963.680 6317037.969 10 0 60895 0.00000 0 11498233.051 22526892.960 3169100.995 10 0 60895 900.00000 0 11715535.146 22635099.943 -40535.722 10 0 60895 1800.00000 0 11745331.773 22383055.029 -3249381.079 10 0 60895 2700.00000 0 11541833.565 21802157.793 -6394930.861 10 0 60895 3600.00000 0 11067630.157 20934305.802 -9415896.992 10 0 60895 4500.00000 0 10295518.325 19830037.075 -12253414.192 10 0 60895 5400.00000 0 9209905.719 18546325.353 -14852198.906 10 0 60895 6300.00000 0 7807729.094 17144122.315 -17161636.635 10 0 60895 7200.00000 0 6098846.817 15685751.636 -19136775.438 10 0 60895 8100.00000 0 4105887.965 14232265.867 -20739205.596 10 0 60895 9000.00000 0 1863563.544 12840878.442 -21937808.015 10 0 60895 9900.00000 0 -582531.711 11562579.492 -22709356.859 10 0 60895 10800.00000 0 -3177576.965 10440035.885 -23038965.122 10 0 60895 11700.00000 0 -5859573.078 9505863.405 -22920365.157 10 0 60895 12600.00000 0 -8561695.008 8781342.856 -22356019.540 10 0 60895 13500.00000 0 -11214850.733 8275632.764 -21357061.067 10 0 60895 14400.00000 0 -13750340.235 7985510.174 -19943063.935 10 0 60895 15300.00000 0 -16102504.148 7895648.696 -18141651.431 10 0 60895 16200.00000 0 -18211252.387 7979420.318 -15987948.459 10 0 60895 17100.00000 0 -20024368.361 8200185.523 -13523890.137 10 0 60895 18000.00000 0 -21499493.861 8513015.906 -10797400.357 10 0 60895 18900.00000 0 -22605713.250 8866775.482 -7861456.591 10 0 60895 19800.00000 0 -23324672.380 9206472.038 -4773059.306 10 0 60895 20700.00000 0 -23651187.084 9475778.789 -1592126.120 10 0 60895 21600.00000 0 -23593317.433 9619619.672 1619667.841 10 0 60895 22500.00000 0 -23171906.125 9586709.218 4800081.043 10 0 60895 23400.00000 0 -22419601.594 9331939.980 7887505.197 10 0 60895 24300.00000 0 -21379407.745 8818517.120 10822150.673 10 0 60895 25200.00000 0 -20102821.645 8019750.391 13547195.279 10 0 60895 26100.00000 0 -18647637.371 6920428.118 16009874.854 10 0 60895 27000.00000 0 -17075507.791 5517715.154 18162495.440 10 0 60895 27900.00000 0 -15449365.729 3821536.525 19963348.382 10 0 60895 28800.00000 0 -13830811.600 1854429.621 21377511.536 10 0 60895 29700.00000 0 -12277575.684 -349130.339 22377521.936 10 0 60895 30600.00000 0 -10841160.067 -2743905.272 22943907.515 10 0 60895 31500.00000 0 -9564757.793 -5275522.750 23065567.932 10 0 60895 32400.00000 0 -8481535.405 -7882492.562 22739997.103 10 0 60895 33300.00000 0 -7613350.137 -10498529.687 21973342.720 10 0 60895 34200.00000 0 -6969955.264 -13055089.181 20780300.802 10 0 60895 35100.00000 0 -6548727.029 -15484009.313 19183846.177 10 0 60895 36000.00000 0 -6334925.013 -17720154.342 17214802.747 10 0 60895 36900.00000 0 -6302475.651 -19703947.646 14911260.384 10 0 60895 37800.00000 0 -6415246.591 -21383689.872 12317848.348 10 0 60895 38700.00000 0 -6628758.799 -22717565.107 9484878.034 10 0 60895 39600.00000 0 -6892264.514 -23675250.483 6467370.827 10 0 60895 40500.00000 0 -7151103.229 -24239060.952 3323989.441 10 0 60895 41400.00000 0 -7349235.567 -24404580.212 115893.476 10 0 60895 42300.00000 0 -7431846.865 -24180750.395 -3094458.006 10 0 60895 43200.00000 0 -7347908.794 -23589416.110 -6244532.732 10 0 60895 44100.00000 0 -7052588.819 -22664341.777 -9272955.224 10 0 60895 45000.00000 0 -6509403.536 -21449743.765 -12120715.153 10 0 60895 45900.00000 0 -5692022.787 -19998399.756 -14732329.137 10 0 60895 46800.00000 0 -4585646.398 -18369415.806 -17056932.049 10 0 60895 47700.00000 0 -3187893.751 -16625746.243 -19049275.531 10 0 60895 48600.00000 0 -1509167.362 -14831571.879 -20670613.565 10 0 60895 49500.00000 0 427525.873 -13049647.736 -21889457.582 10 0 60895 50400.00000 0 2587288.852 -11338732.472 -22682186.435 10 0 60895 51300.00000 0 4924554.305 -9751207.680 -23033499.815 10 0 60895 52200.00000 0 7384759.710 -8330986.739 -22936706.942 10 0 60895 53100.00000 0 9906407.082 -7111800.208 -22393845.760 10 0 60895 54000.00000 0 12423421.551 -6115928.434 -21415631.250 10 0 60895 54900.00000 0 14867710.415 -5353432.909 -20021234.755 10 0 60895 55800.00000 0 17171816.061 -4821916.709 -18237899.473 10 0 60895 56700.00000 0 19271552.565 -4506822.033 -16100400.306 10 0 60895 57600.00000 0 21108516.626 -4382250.269 -13650359.148 10 0 60895 58500.00000 0 22632368.925 -4412268.183 -10935429.410 10 0 60895 59400.00000 0 23802791.778 -4552643.571 -8008365.941 10 0 60895 60300.00000 0 24591042.544 -4752935.892 -4925998.624 10 0 60895 61200.00000 0 24981039.220 -4958852.750 -1748129.717 10 0 60895 62100.00000 0 24969934.182 -5114772.187 1463623.676 10 0 60895 63000.00000 0 24568153.372 -5166324.083 4647019.676 10 0 60895 63900.00000 0 23798900.441 -5062921.681 7740391.387 10 0 60895 64800.00000 0 22697147.490 -4760136.626 10683833.520 10 0 60895 65700.00000 0 21308155.218 -4221817.561 13420353.449 10 0 60895 66600.00000 0 19685584.640 -3421863.171 15896965.137 10 0 60895 67500.00000 0 17889279.134 -2345575.024 18065705.579 10 0 60895 68400.00000 0 15982809.014 -990532.946 19884555.054 10 0 60895 69300.00000 0 14030880.311 633044.543 21318244.251 10 0 60895 70200.00000 0 12096714.891 2502471.045 22338933.503 10 0 60895 71100.00000 0 10239509.974 4583288.870 22926751.630 10 0 60895 72000.00000 0 8512081.890 6830464.246 23070184.293 10 0 60895 72900.00000 0 6958791.253 9190033.557 22766304.357 10 0 60895 73800.00000 0 5613835.281 11601134.334 22020839.417 10 0 60895 74700.00000 0 4499978.023 13998338.594 20848074.376 10 0 60895 75600.00000 0 3627771.315 16314193.357 19270589.864 10 0 60895 76500.00000 0 2995299.147 18481864.077 17318840.176 10 0 60895 77400.00000 0 2588456.437 20437771.790 15030577.451 10 0 60895 78300.00000 0 2381750.926 22124114.419 12450131.805 10 0 60895 79200.00000 0 2339594.885 23491166.793 9627560.090 10 0 60895 80100.00000 0 2418032.451 24499262.503 6617678.935 10 0 60895 81000.00000 0 2566829.659 25120373.603 3479000.286 10 0 60895 81900.00000 0 2731838.444 25339220.701 272590.131 10 0 60895 82800.00000 0 2857533.760 25153865.593 -2939126.928 10 0 60895 83700.00000 0 2889615.128 24575760.507 -6093593.110 10 0 60895 84600.00000 0 2777560.835 23629251.171 -9129347.878 10 0 60895 85500.00000 0 2477024.764 22350554.289 -11987237.939 10 0 60896 0.00000 0 1951972.462 20786252.755 -14611581.658 10 0 60896 900.00000 0 1176463.881 18991371.546 -16951265.265 10 0 60896 1800.00000 0 136006.449 17027118.170 -18960744.964 10 0 60896 2700.00000 0 -1171580.984 14958380.836 -20600939.416 10 0 60896 3600.00000 0 -2735830.248 12851092.324 -21839991.323 10 0 60896 4500.00000 0 -4533827.178 10769570.157 -22653884.756 10 0 60896 5400.00000 0 -6530948.058 8773945.098 -23026906.402 10 0 60896 6300.00000 0 -8682098.480 6917785.618 -22951942.394 10 0 60896 7200.00000 0 -10933402.718 5246017.265 -22430605.789 10 0 60896 8100.00000 0 -13224272.890 3793222.954 -21473193.163 10 0 60896 9000.00000 0 -15489771.350 2582393.744 -20098472.063 10 0 60896 9900.00000 0 -17663167.655 1624180.541 -18333304.298 10 0 60896 10800.00000 0 -19678583.471 916675.882 -16212113.149 10 0 60896 11700.00000 0 -21473615.396 445732.704 -13776205.415 10 0 60896 12600.00000 0 -22991826.625 185804.453 -11072961.962 10 0 60896 13500.00000 0 -24185004.183 101269.209 -8154912.828 10 0 60896 14400.00000 0 -25015088.258 148180.298 -5078715.051 10 0 60896 15300.00000 0 -25455693.979 276368.270 -1904053.221 10 0 60896 16200.00000 0 -25493163.099 431804.610 1307515.928 10 0 60896 17100.00000 0 -25127102.608 559126.852 4493752.561 10 0 60896 18000.00000 0 -24370388.708 604218.313 7592933.606 10 0 60896 18900.00000 0 -23248636.755 516733.590 10545040.553 10 0 60896 19800.00000 0 -21799159.833 252463.500 13292912.779 10 0 60896 20700.00000 0 -20069459.695 -224560.003 15783344.728 10 0 60896 21600.00000 0 -18115312.938 -940307.424 17968106.559 10 0 60896 22500.00000 0 -15998531.757 -1909417.851 19804869.463 10 0 60896 23400.00000 0 -13784491.858 -3134344.032 21258018.626 10 0 60896 24300.00000 0 -11539529.407 -4605013.143 22299338.975 10 0 60896 25200.00000 0 -9328314.171 -6299018.768 22908561.101 10 0 60896 26100.00000 0 -7211306.908 -8182337.732 23073757.126 10 0 60896 27000.00000 0 -5242405.567 -10210543.906 22791578.914 10 0 60896 27900.00000 0 -3466877.220 -12330470.549 22067333.613 10 0 60896 28800.00000 0 -1919661.079 -14482254.035 20914894.305 10 0 60896 29700.00000 0 -624112.841 -16601675.839 19356446.376 10 0 60896 30600.00000 0 408757.433 -18622706.818 17422073.171 10 0 60896 31500.00000 0 1180521.966 -20480148.794 15149187.459 10 0 60896 32400.00000 0 1705036.310 -22112263.812 12581818.320 10 0 60896 33300.00000 0 2007617.087 -23463281.145 9769765.959 10 0 60896 34200.00000 0 2123730.792 -24485676.571 6767639.952 10 0 60896 35100.00000 0 2097248.969 -25142127.374 3633799.061 10 0 60896 36000.00000 0 1978343.727 -25407059.733 429213.142 10 0 60896 36900.00000 0 1821113.284 -25267721.984 -2783730.236 10 0 60896 37800.00000 0 1681039.121 -24724737.301 -5942450.397 10 0 60896 38700.00000 0 1612383.880 -23792111.324 -8985404.377 10 0 60896 39600.00000 0 1665641.954 -22496693.679 -11853298.546 10 0 60896 40500.00000 0 1885152.581 -20877115.645 -14490256.052 10 0 60896 41400.00000 0 2306978.344 -18982248.748 -16844916.018 10 0 60896 42300.00000 0 2957140.532 -16869249.516 -18871442.012 10 0 60896 43200.00000 0 3850287.359 -14601273.207 -20530419.412 10 0 60896 44100.00000 0 4988852.410 -12244953.207 -21789623.888 10 0 60896 45000.00000 0 6362739.561 -9867752.457 -22624646.016 10 0 60896 45900.00000 0 7949548.089 -7535298.287 -23019360.316 10 0 60896 46800.00000 0 9715328.699 -5308812.208 -22966230.216 10 0 60896 47700.00000 0 11615838.724 -3242741.790 -22466443.831 10 0 60896 48600.00000 0 13598243.690 -1382692.695 -21529878.869 10 0 60896 49500.00000 0 15603193.865 236254.075 -20174898.224 10 0 60896 50400.00000 0 17567188.673 1590771.165 -18427981.103 10 0 60896 51300.00000 0 19425130.041 2670010.796 -16323197.585 10 0 60896 52200.00000 0 21112957.994 3475799.597 -13901537.426 10 0 60896 53100.00000 0 22570258.524 4022296.544 -11210106.628 10 0 60896 54000.00000 0 23742735.076 4335130.659 -8301207.747 10 0 60896 54900.00000 0 24584440.875 4450056.823 -5231321.990 10 0 60896 55800.00000 0 25059679.387 4411188.001 -2060013.043 10 0 60896 56700.00000 0 25144494.172 4268879.703 1151226.094 10 0 60896 57600.00000 0 24827686.593 4077356.827 4340161.034 10 0 60896 58500.00000 0 24111319.508 3892183.477 7445015.825 10 0 60896 59400.00000 0 23010686.502 3767682.660 10405661.850 10 0 60896 60300.00000 0 21553748.295 3754414.585 13164773.312 10 0 60896 61200.00000 0 19780059.988 3896819.604 15668927.615 10 0 60896 62100.00000 0 17739233.722 4231124.792 17869630.179 10 0 60896 63000.00000 0 15489000.244 4783602.114 19724244.811 10 0 60896 63900.00000 0 13092949.343 5569251.486 21196812.490 10 0 60896 64800.00000 0 10618041.973 6590964.453 22258743.629 10 0 60896 65700.00000 0 8131996.231 7839204.446 22889371.049 10 0 60896 66600.00000 0 5700654.409 9292218.293 23076353.357 10 0 60896 67500.00000 0 3385439.116 10916771.844 22815920.985 10 0 60896 68400.00000 0 1241002.940 12669380.942 22112959.738 10 0 60896 69300.00000 0 -686831.665 14497988.395 20980929.517 10 0 60896 70200.00000 0 -2362757.264 16344018.983 19441618.685 10 0 60896 71100.00000 0 -3763221.318 18144728.461 17524737.464 10 0 60896 72000.00000 0 -4877169.431 19835749.799 15267356.780 10 0 60896 72900.00000 0 -5706260.807 21353731.019 12713201.974 10 0 60896 73800.00000 0 -6264546.713 22638954.467 9911813.744 10 0 60896 74700.00000 0 -6577625.229 23637827.375 6917591.680 10 0 60896 75600.00000 0 -6681307.881 24305138.276 3788738.398 10 0 60896 76500.00000 0 -6619854.535 24605983.192 586124.692 10 0 60896 77400.00000 0 -6443851.705 24517278.971 -2627901.753 10 0 60896 78300.00000 0 -6207824.890 24028798.491 -5790740.084 10 0 60896 79200.00000 0 -5967687.311 23143682.599 -8840767.438 10 0 60896 80100.00000 0 -5778134.624 21878406.041 -11718552.137 10 0 60896 81000.00000 0 -5690097.686 20262197.941 -14368023.883 10 0 60896 81900.00000 0 -5748363.002 18335940.840 -16737576.855 10 0 60896 82800.00000 0 -5989463.181 16150594.537 -18781083.108 10 0 60896 83700.00000 0 -6439928.049 13765211.297 -20458795.804 10 0 60896 84600.00000 0 -7114971.382 11244626.156 -21738124.340 10 0 60896 85500.00000 0 -8017669.450 8656919.671 -22594266.279 10 0 60897 0.00000 0 -9138666.269 6070759.984 -23010684.150 10 0 60897 900.00000 0 -10456418.706 3552734.046 -22979418.629 10 0 60897 1800.00000 0 -11937969.453 1164782.782 -22501232.378 10 0 60897 2700.00000 0 -13540217.075 -1038158.036 -21585583.420 10 0 60897 3600.00000 0 -15211628.063 -3010210.435 -20250428.809 10 0 60897 4500.00000 0 -16894319.283 -4716217.626 -18521863.597 10 0 60897 5400.00000 0 -18526423.168 -6132950.461 -16433602.784 10 0 60897 6300.00000 0 -20044636.431 -7249808.746 -14026316.937 10 0 60897 7200.00000 0 -21386845.501 -8068990.440 -11346834.857 10 0 60897 8100.00000 0 -22494718.853 -8605124.094 -8447229.148 10 0 60897 9000.00000 0 -23316157.965 -8884382.191 -5383802.654 10 0 60897 9900.00000 0 -23807504.640 -8943114.706 -2215995.601 10 0 60897 10800.00000 0 -23935412.759 -8826061.996 994765.318 10 0 60897 11700.00000 0 -23678306.613 -8584223.572 4186253.722 10 0 60897 12600.00000 0 -23027365.284 -8272473.354 7296643.335 10 0 60897 13500.00000 0 -21986992.294 -7947022.318 10265697.935 10 0 60897 14400.00000 0 -20574751.123 -7662835.572 13035928.978 10 0 60897 15300.00000 0 -18820769.272 -7471112.425 15553699.112 10 0 60897 16200.00000 0 -16766635.458 -7416935.260 17770251.094 10 0 60897 17100.00000 0 -14463835.268 -7537185.744 19642643.132 10 0 60897 18000.00000 0 -11971789.473 -7858815.775 21134573.432 10 0 60897 18900.00000 0 -9355575.379 -8397545.797 22217078.916 10 0 60897 19800.00000 0 -6683424.397 -9157045.532 22869095.237 10 0 60897 20700.00000 0 -4024098.267 -10128632.246 23077867.668 10 0 60897 21600.00000 0 -1444251.207 -11291500.477 22839204.978 10 0 60897 22500.00000 0 994113.949 -12613475.171 22157571.041 10 0 60897 23400.00000 0 3235991.222 -14052258.591 21046011.660 10 0 60897 24300.00000 0 5235422.048 -15557120.713 19525916.958 10 0 60897 25200.00000 0 6957166.207 -17070964.231 17626622.554 10 0 60897 26100.00000 0 8377923.760 -18532679.206 15384855.791 10 0 60897 27000.00000 0 9487056.979 -19879689.776 12844036.273 10 0 60897 27900.00000 0 10286781.921 -21050586.662 10053442.947 10 0 60897 28800.00000 0 10791821.360 -21987734.794 7067262.960 10 0 60897 29700.00000 0 11028533.559 -22639745.802 3943540.137 10 0 60897 30600.00000 0 11033553.619 -22963710.120 743043.451 10 0 60897 31500.00000 0 10852005.087 -22927093.153 -2471922.130 10 0 60897 32400.00000 0 10535358.115 -22509213.839 -5638738.400 10 0 60897 33300.00000 0 10139025.803 -21702241.538 -8695705.375 10 0 60897 34200.00000 0 9719801.858 -20511667.637 -11583256.006 10 0 60897 35100.00000 0 9333249.620 -18956230.751 -14245129.093 10 0 60897 36000.00000 0 9031154.644 -17067297.765 -16629476.221 10 0 60897 36900.00000 0 8859150.218 -14887726.341 -18689880.035 10 0 60897 37800.00000 0 8854617.626 -12470256.568 -20386263.269 10 0 60897 38700.00000 0 9044950.942 -9875499.437 -21685670.468 10 0 60897 39600.00000 0 9446260.314 -7169606.788 -22562907.165 10 0 60897 40500.00000 0 10062568.745 -4421720.528 -23001024.457 10 0 60897 41400.00000 0 10885536.190 -1701307.904 -22991640.184 10 0 60897 42300.00000 0 11894722.241 924505.991 -22535091.288 10 0 60897 43200.00000 0 13058375.868 3393497.679 -21640415.312 10 0 60897 44100.00000 0 14334718.418 5650690.895 -20325162.296 10 0 60897 45000.00000 0 15673665.328 7650391.781 -18615041.622 10 0 60897 45900.00000 0 17018913.743 9357830.504 -16543411.378 10 0 60897 46800.00000 0 18310307.971 10750342.818 -14150620.795 10 0 60897 47700.00000 0 19486383.193 11818044.410 -11483219.033 10 0 60897 48600.00000 0 20486980.598 12563972.211 -8593046.034 10 0 60897 49500.00000 0 21255824.267 13003689.055 -5536223.331 10 0 60897 50400.00000 0 21742951.848 13164370.459 -2372064.577 10 0 60897 51300.00000 0 21906897.399 13083413.750 838073.045 10 0 60897 52200.00000 0 21716535.186 12806629.559 4031974.344 10 0 60897 53100.00000 0 21152507.512 12386092.874 7147765.783 10 0 60897 54000.00000 0 20208177.029 11877744.780 10125106.402 10 0 60897 54900.00000 0 18890063.782 11338846.097 12906347.494 10 0 60897 55800.00000 0 17217748.610 10825390.020 15437639.225 10 0 60897 56700.00000 0 15223246.533 10389582.269 17669963.618 10 0 60897 57600.00000 0 12949875.539 10077494.239 19560074.858 10 0 60897 58500.00000 0 10450666.862 9926987.287 21071329.604 10 0 60897 59400.00000 0 7786381.548 9965995.017 22174392.148 10 0 60897 60300.00000 0 5023214.119 10211235.527 22847801.457 10 0 60897 61200.00000 0 2230276.987 10667407.976 23078389.547 10 0 60897 62100.00000 0 -523031.755 11326907.809 22861543.176 10 0 60897 63000.00000 0 -3169669.673 12170073.698 22201303.473 10 0 60897 63900.00000 0 -5647492.253 13165957.302 21110300.872 10 0 60897 64800.00000 0 -7901591.707 14273585.209 19609525.529 10 0 60897 65700.00000 0 -9886335.894 15443661.881 17727936.310 10 0 60897 66600.00000 0 -11567022.877 16620643.684 15501914.473 10 0 60897 67500.00000 0 -12921082.194 17745098.175 12974571.116 10 0 60897 68400.00000 0 -13938772.509 18756250.247 10194920.509 10 0 60897 69300.00000 0 -14623346.092 19594608.207 7216934.332 10 0 60897 70200.00000 0 -14990672.952 20204558.772 4098494.609 10 0 60897 71100.00000 0 -15068340.317 20536820.644 900265.514 10 0 60897 72000.00000 0 -14894265.478 20550651.705 -2315493.572 10 0 60897 72900.00000 0 -14514881.068 20215714.945 -5486149.844 10 0 60897 73800.00000 0 -13982970.225 19513522.479 -8549928.786 10 0 60897 74700.00000 0 -13355244.387 18438394.911 -11447130.359 10 0 60897 75600.00000 0 -12689767.603 16997893.959 -14121304.584 10 0 60897 76500.00000 0 -12043337.834 15212708.864 -16520362.278 10 0 60897 77400.00000 0 -11468937.559 13116000.465 -18597598.169 10 0 60897 78300.00000 0 -11013362.776 10752230.072 -20312605.706 10 0 60897 79200.00000 0 -10715131.602 8175522.094 -21632065.372 10 0 60897 80100.00000 0 -10602761.441 5447629.174 -22530391.106 10 0 60897 81000.00000 0 -10693487.598 2635585.156 -22990222.641 10 0 60897 81900.00000 0 -10992477.226 -190855.907 -23002754.785 10 0 60897 82800.00000 0 -11492571.174 -2961887.779 -22567898.071 10 0 60897 83700.00000 0 -12174563.873 -5610316.159 -21694268.557 10 0 60897 84600.00000 0 -13008008.571 -8074108.476 -20399007.908 10 0 60897 85500.00000 0 -13952513.132 -10298724.116 -18707438.120 99